Location: Unspecified
(0.0000°N, 0.0000°E)
Time: 22:41:37

Vanguard 1 - Pass Details

Date: 09 December 2017
Orbit: 649 x 3834 km, 34.3° (Epoch: 23 March)

Event Time Altitude Azimuth Distance (km) Brightness Sun altitude
Rises 21:42:18 0° 247° (WSW) 3,254 13.3 -50.9°
Enters shadow 21:45:13 - 224° (SW) 2,834 12.9 -51.5°
Exits shadow 21:53:21 - 163° (SSE) 3,912 13.3 -53.1°
Drops below altitude 10° 21:53:26 - 162° (SSE) 3,933 13.3 -53.1°
Sets 21:56:53 0° 150° (SSE) 4,903 13.7 -53.7°
